#timestamp,LO_Frequency,Hit,StdDev 
1706090415.6,286046996.5,Y
1706090435.4,286046999.0,P
1706090455.2,286046998.9,P
1706090475.1,286046998.3,P
1706090476.0,286046998.3,Y
1706090495.8,286046998.3,P
1706090515.7,286046999.4,N
1706090535.5,286046998.9,N
1706090555.3,286046996.9,Y
1706090575.2,286046998.3,P
1706090595.0,286046999.2,N
1706090595.9,286046999.2,N
1706090615.8,286046998.6,Y
1706090635.6,286046998.5,P
1706090655.4,286046998.3,P
1706090675.3,286046998.2,P
1706090695.1,286047001.0,Y
1706090715.8,286047000.2,P
1706090735.7,286047000.4,N
1706090755.5,286046998.1,N
1706090775.4,286047001.0,N
1706090795.2,286046998.6,N
1706090815.0,286046998.3,N
1706090815.9,286046998.3,N
1706090835.8,286046998.7,N
1706090855.6,286046999.4,N
1706090875.5,286046998.4,N
1706090895.3,286046999.2,N
1706090915.1,286046996.5,Y
1706090935.9,286046999.4,P
1706090955.7,286047001.2,P
1706090975.5,286046999.1,N
1706090995.4,286046997.4,Y
1706091015.2,286046996.8,P
1706091035.1,286046997.7,N
1706091036.0,286046997.7,N
1706091055.8,286046997.7,N
1706091075.6,286046995.1,Y
1706091095.5,286046996.9,P
1706091115.3,286046997.6,P
1706091135.2,286046995.5,P
1706091155.9,286046995.8,Y
1706091175.7,286046999.1,P
1706091195.6,286046997.7,N
1706091215.4,286046998.0,N
1706091235.2,286046995.3,Y
1706091255.1,286046996.7,P
1706091256.0,286046996.7,P
1706091305.9,286046994.8,E
1706091315.8,286046993.9,N
1706091335.6,286046995.0,P
1706091355.5,286046996.3,P
1706091375.3,286046991.8,Y
1706091395.1,286046999.2,P
1706091415.9,286046999.6,N
1706091435.7,286046997.7,N
1706091455.6,286046997.6,N
1706091475.4,286046995.2,Y
1706091495.2,286046997.4,P
1706091515.1,286046997.4,P
1706091516.0,286046997.4,P
1706091535.8,286046996.4,Y
1706091555.6,286046997.1,P
1706091575.5,286046995.1,P
1706091595.3,286046993.5,P
1706091615.2,286046993.6,Y
1706091635.0,286046997.4,P
1706091635.9,286046997.4,P
1706091655.7,286046996.0,P
1706091675.6,286046994.8,Y
1706091695.4,286046995.3,P
1706091715.3,286046995.9,P
1706091735.1,286046996.1,P
1706091755.8,286046993.9,Y
1706091775.7,286046998.3,P
1706091795.5,286046999.5,N
1706091815.4,286046997.2,N
1706091835.2,286046999.5,N
1706091855.0,286046997.7,N
1706091855.9,286046997.7,N
1706091875.8,286046995.0,Y
1706091895.6,286046997.1,P
1706091915.5,286046997.1,P
1706091935.3,286046995.6,P
1706091955.1,286046995.3,Y
1706091975.9,286046999.2,P
1706091995.7,286046996.9,N
1706092015.5,286046996.9,N
1706092035.4,286046997.4,N
1706092055.2,286046997.6,N
1706092075.1,286046995.0,Y
1706092076.0,286046995.0,P
1706092095.8,286046998.8,N
1706092115.6,286046998.9,N
1706092135.5,286046999.3,N
1706092155.3,286046999.2,N
1706092175.2,286046999.4,N
1706092195.9,286046999.6,N
1706092215.7,286046997.3,N
1706092235.6,286046997.2,N
1706092255.4,286046995.4,Y
1706092275.2,286046996.9,P
1706092295.1,286046996.6,P
1706092296.0,286046996.6,P
1706092315.8,286046998.0,Y
1706092335.7,286046999.1,P
1706092355.5,286046997.1,N
1706092375.3,286046995.0,P
1706092395.2,286046995.8,N
1706092415.0,286046994.0,Y
1706092415.9,286046994.0,P
1706092435.8,286046998.0,N
1706092455.6,286046996.0,N
1706092475.4,286046992.4,Y
1706092495.3,286046994.9,P
1706092515.1,286046993.7,P
1706092535.9,286046994.0,P
1706092555.7,286046992.5,Y
1706092575.5,286046999.4,P
1706092595.4,286046995.0,N
1706092615.2,286046995.8,N
1706092635.1,286046994.0,Y
1706092636.0,286046994.0,P
1706092655.8,286046997.1,N
1706092675.6,286046996.9,N
1706092695.5,286046997.9,N
1706092715.3,286046996.1,N
1706092735.1,286046993.8,Y
1706092755.9,286046996.6,P
1706092775.7,286046996.8,P
1706092795.6,286046995.5,P
1706092815.4,286046995.7,Y
1706092835.2,286046998.3,P
1706092855.1,286046998.5,N
1706092856.0,286046998.5,N
1706092875.8,286046999.3,N
1706092895.7,286046996.5,Y
1706092915.5,286046998.6,P
1706092935.3,286046998.5,P
1706092955.2,286046998.9,P
1706092975.0,286047001.1,Y
1706092975.9,286047001.1,P
1706092995.8,286047002.6,N
1706093015.6,286047002.4,N
1706093035.4,286046999.9,N
1706093055.3,286047000.4,N
1706093075.1,286047000.3,N
1706093095.8,286047000.5,N
1706093115.7,286046998.1,N
1706093135.5,286047001.1,N
1706093155.4,286046998.2,N
1706093175.2,286046998.7,N
1706093195.0,286046998.9,N
1706093195.9,286046998.9,N
1706093215.8,286046999.6,N
1706093235.6,286046999.3,N
1706093255.4,286046999.1,N
1706093275.3,286046996.6,N
1706093295.1,286046996.9,N
1706093315.9,286046997.3,N
1706093335.7,286046997.3,N
1706093355.5,286046997.6,N
1706093375.4,286046999.2,N
1706093395.2,286046999.3,N
1706093415.1,286046996.9,N
1706093416.0,286046996.9,N
1706093435.8,286046997.2,N
1706093455.6,286046996.5,N
1706093475.5,286046997.0,N
1706093495.3,286046998.7,N
1706093515.1,286046998.8,N
1706093535.9,286047001.2,N
1706093555.7,286046999.0,N
1706093575.6,286046999.5,N
1706093595.4,286046998.4,N
1706093615.2,286046998.4,N
1706093635.1,286046998.4,N
1706093636.0,286046998.4,N
1706093655.8,286046998.9,N
1706093675.6,286046998.5,N
1706093695.5,286046998.4,N
1706093715.3,286047000.1,N
1706093735.2,286047002.7,N
1706093755.9,286047000.5,N
1706093775.7,286047000.9,N
1706093795.6,286047000.1,N
1706093815.4,286047002.5,N
1706093835.3,286046999.8,N
1706093855.1,286047002.1,N
1706093856.0,286047002.1,N
1706093875.8,286047002.5,N
1706093895.7,286047002.5,N
1706093915.5,286047000.0,N
1706093935.3,286046999.9,N
1706093955.2,286046998.2,N
1706093975.0,286046998.5,N
1706093975.9,286046998.5,N
1706093995.8,286047000.1,N
